| time (UTC) | temp F | wind direction | speed MPH | gust MPH | rain 1hr in | rain 24hr in | rain mn in | humidity % | barometer mb |
| 20260902051506 | 75 | 88 | 0.0 | 0.0 | 0.00 | 0.31 | 0.00 | 92 | 1010.7 |
| 20260902050047 | 75 | 88 | 0.0 | 0.0 | 0.00 | 0.31 | 0.00 | 92 | 1010.6 |
| 20260902044544 | 75 | 87 | 0.0 | 0.0 | 0.00 | 0.31 | 0.00 | 92 | 1010.8 |
| 20260902043027 | 75 | 87 | 0.0 | 0.0 | 0.00 | 0.31 | 0.00 | 92 | 1010.7 |
| 20260902041524 | 75 | 84 | 0.0 | 0.0 | 0.00 | 0.31 | 0.00 | 92 | 1010.6 |
| 20260902040006 | 76 | 84 | 0.0 | 0.0 | 0.00 | 0.31 | 0.00 | 92 | 1010.4 |
| 20260902034503 | 76 | 84 | 0.0 | 0.0 | 0.00 | 0.31 | 0.31 | 92 | 1010.5 |
| 20260902033052 | 76 | 84 | 0.0 | 0.0 | 0.00 | 0.31 | 0.31 | 92 | 1010.5 |
| 20260902031546 | 76 | 84 | 0.0 | 0.0 | 0.00 | 0.31 | 0.31 | 91 | 1010.5 |
| 20260902030028 | 77 | 84 | 0.0 | 0.0 | 0.00 | 0.31 | 0.31 | 91 | 1010.4 |
| 20260902024526 | 77 | 83 | 0.0 | 0.0 | 0.00 | 0.31 | 0.31 | 91 | 1010.4 |
| 20260902023022 | 77 | 83 | 0.0 | 0.0 | 0.00 | 0.31 | 0.31 | 91 | 1010.4 |
| 20260902021524 | 78 | 83 | 0.0 | 0.0 | 0.00 | 0.31 | 0.31 | 91 | 1010.3 |
| 20260902020101 | 78 | 79 | 0.0 | 0.0 | 0.00 | 0.31 | 0.31 | 90 | 1010.3 |
| 20260902014557 | 79 | 79 | 0.0 | 0.0 | 0.00 | 0.31 | 0.31 | 89 | 1010.2 |
| 20260902013057 | 79 | 79 | 0.0 | 0.0 | 0.00 | 0.31 | 0.31 | 88 | 1010.1 |
| 20260902011556 | 80 | 79 | 0.0 | 0.0 | 0.00 | 0.31 | 0.31 | 87 | 1010.0 |
| 20260902010055 | 80 | 79 | 0.0 | 0.0 | 0.00 | 0.31 | 0.31 | 86 | 1009.8 |
| 20260902004556 | 81 | 79 | 0.0 | 0.0 | 0.00 | 0.31 | 0.31 | 85 | 1009.8 |
| 20260902003058 | 82 | 79 | 0.0 | 0.0 | 0.00 | 0.31 | 0.31 | 85 | 1009.7 |
| 20260902001554 | 83 | 79 | 0.0 | 0.0 | 0.00 | 0.31 | 0.31 | 85 | 1009.7 |
| 20260902000036 | 84 | 79 | 0.0 | 0.0 | 0.00 | 0.31 | 0.31 | 83 | 1009.8 |
| 20260901234535 | 85 | 79 | 0.0 | 0.0 | 0.00 | 0.31 | 0.31 | 81 | 1009.9 |
| 20260901233017 | 86 | 79 | 0.0 | 0.0 | 0.00 | 0.31 | 0.31 | 81 | 1009.9 |
| 20260901231517 | 86 | 79 | 0.0 | 0.0 | 0.00 | 0.31 | 0.31 | 79 | 1010.0 |
| 20260901230114 | 86 | 79 | 0.0 | 0.0 | 0.00 | 0.31 | 0.31 | 78 | 1010.1 |
| 20260901224601 | 87 | 79 | 0.0 | 0.0 | 0.00 | 0.32 | 0.31 | 77 | 1010.1 |
| 20260901223044 | 89 | 79 | 0.0 | 0.0 | 0.00 | 0.32 | 0.31 | 75 | 1010.1 |
| 20260901221543 | 90 | 79 | 0.0 | 1.0 | 0.00 | 0.32 | 0.31 | 73 | 1010.0 |
| 20260901220050 | 89 | 79 | 0.0 | 1.0 | 0.00 | 0.32 | 0.31 | 72 | 1009.9 |
| 20260901214522 | 89 | 79 | 0.0 | 1.0 | 0.00 | 0.32 | 0.31 | 70 | 1010.0 |
| 20260901213003 | 89 | 79 | 0.0 | 3.0 | 0.00 | 0.32 | 0.31 | 71 | 1010.0 |
| 20260901211501 | 89 | 79 | 0.0 | 2.0 | 0.00 | 0.32 | 0.31 | 73 | 1010.1 |
| 20260901210104 | 88 | 78 | 0.0 | 2.0 | 0.00 | 0.32 | 0.31 | 73 | 1010.1 |
| 20260901204540 | 87 | 78 | 0.0 | 2.0 | 0.00 | 0.32 | 0.31 | 77 | 1010.2 |
| 20260901203052 | 86 | 79 | 0.0 | 2.0 | 0.00 | 0.32 | 0.31 | 79 | 1010.1 |
| 20260901201516 | 85 | 78 | 1.0 | 4.0 | 0.00 | 0.32 | 0.31 | 81 | 1010.3 |
| 20260901200017 | 84 | 78 | 1.0 | 3.0 | 0.00 | 0.32 | 0.31 | 83 | 1010.3 |
| 20260901194554 | 83 | 77 | 2.0 | 5.0 | 0.00 | 0.35 | 0.31 | 83 | 1010.3 |
| 20260901193058 | 82 | 99 | 0.0 | 3.0 | 0.00 | 0.35 | 0.31 | 84 | 1010.5 |
| 20260901191542 | 82 | 29 | 0.0 | 7.0 | 0.00 | 0.35 | 0.31 | 84 | 1010.6 |
| 20260901190040 | 82 | 57 | 1.0 | 7.0 | 0.00 | 0.35 | 0.31 | 83 | 1010.7 |
| 20260901184540 | 81 | 38 | 0.0 | 5.0 | 0.00 | 0.37 | 0.31 | 83 | 1010.7 |
| 20260901183046 | 82 | 11 | 2.0 | 7.0 | 0.00 | 0.37 | 0.31 | 83 | 1010.8 |
| 20260901181537 | 82 | 50 | 0.0 | 5.0 | 0.31 | 0.37 | 0.31 | 84 | 1010.8 |
| 20260901180035 | 82 | 43 | 0.0 | 5.0 | 0.31 | 0.37 | 0.31 | 84 | 1010.7 |
| 20260901174535 | 81 | 354 | 0.0 | 4.0 | 0.31 | 0.37 | 0.31 | 85 | 1010.7 |
| 20260901173049 | 81 | 354 | 0.0 | 5.0 | 0.31 | 0.37 | 0.31 | 84 | 1010.8 |
| 20260901171515 | 81 | 339 | 0.0 | 4.0 | 0.00 | 0.06 | 0.00 | 84 | 1010.9 |
| 20260901170013 | 80 | 320 | 0.0 | 5.0 | 0.00 | 0.06 | 0.00 | 85 | 1011.0 |
| 20260901164600 | 80 | 288 | 0.0 | 3.0 | 0.00 | 0.06 | 0.00 | 86 | 1011.0 |
| 20260901163052 | 79 | 280 | 1.0 | 3.0 | 0.00 | 0.06 | 0.00 | 87 | 1011.2 |
| 20260901161536 | 78 | 280 | 0.0 | 2.0 | 0.00 | 0.06 | 0.00 | 88 | 1011.3 |
| 20260901160032 | 77 | 280 | 0.0 | 4.0 | 0.00 | 0.06 | 0.00 | 88 | 1011.4 |
| 20260901154511 | 77 | 280 | 1.0 | 4.0 | 0.00 | 0.16 | 0.00 | 88 | 1011.5 |
| 20260901153009 | 77 | 280 | 2.0 | 5.0 | 0.00 | 0.16 | 0.00 | 88 | 1011.5 |
| 20260901151551 | 76 | 280 | 1.0 | 4.0 | 0.00 | 0.16 | 0.00 | 88 | 1011.6 |
| 20260901150053 | 77 | 280 | 1.0 | 4.0 | 0.00 | 0.16 | 0.00 | 88 | 1011.4 |
| 20260901144532 | 77 | 257 | 1.0 | 5.0 | 0.00 | 0.16 | 0.00 | 88 | 1011.5 |
| 20260901143037 | 76 | 247 | 0.0 | 1.0 | 0.00 | 0.16 | 0.00 | 89 | 1011.4 |
| 20260901141521 | 76 | 236 | 0.0 | 0.0 | 0.00 | 0.16 | 0.00 | 89 | 1011.1 |
| 20260901140020 | 76 | 236 | 0.0 | 0.0 | 0.00 | 0.16 | 0.00 | 89 | 1011.1 |
| 20260901134522 | 75 | 217 | 0.0 | 0.0 | 0.00 | 0.16 | 0.00 | 91 | 1011.2 |
| 20260901133013 | 74 | 174 | 0.0 | 0.0 | 0.00 | 0.16 | 0.00 | 92 | 1011.2 |
| 20260901131514 | 74 | 174 | 0.0 | 0.0 | 0.00 | 0.16 | 0.00 | 92 | 1011.3 |
| 20260901130027 | 73 | 173 | 0.0 | 0.0 | 0.00 | 0.16 | 0.00 | 92 | 1011.4 |
| 20260901124508 | 73 | 172 | 0.0 | 0.0 | 0.00 | 0.16 | 0.00 | 93 | 1011.5 |
| 20260901123009 | 72 | 173 | 0.0 | 0.0 | 0.00 | 0.16 | 0.00 | 93 | 1011.5 |
| 20260901121545 | 71 | 173 | 0.0 | 0.0 | 0.00 | 0.16 | 0.00 | 93 | 1011.2 |
| 20260901120053 | 71 | 173 | 0.0 | 0.0 | 0.00 | 0.16 | 0.00 | 93 | 1011.2 |
| 20260901114525 | 71 | 172 | 0.0 | 0.0 | 0.00 | 0.16 | 0.00 | 93 | 1011.1 |
| 20260901113023 | 70 | 172 | 0.0 | 0.0 | 0.00 | 0.16 | 0.00 | 93 | 1010.9 |
| 20260901111512 | 70 | 172 | 0.0 | 0.0 | 0.00 | 0.16 | 0.00 | 93 | 1010.8 |
| 20260901110012 | 70 | 172 | 0.0 | 0.0 | 0.00 | 0.16 | 0.00 | 93 | 1010.8 |
| 20260901104511 | 71 | 172 | 0.0 | 0.0 | 0.00 | 0.16 | 0.00 | 93 | 1010.7 |
| 20260901103013 | 71 | 172 | 0.0 | 0.0 | 0.00 | 0.16 | 0.00 | 93 | 1010.6 |
| 20260901101511 | 71 | 173 | 0.0 | 0.0 | 0.00 | 0.16 | 0.00 | 92 | 1010.6 |
| 20260901100009 | 71 | 172 | 0.0 | 0.0 | 0.00 | 0.16 | 0.00 | 92 | 1010.5 |
| 20260901094508 | 71 | 171 | 0.0 | 0.0 | 0.00 | 0.16 | 0.00 | 92 | 1010.5 |
| 20260901093008 | 71 | 171 | 0.0 | 0.0 | 0.00 | 0.16 | 0.00 | 92 | 1010.6 |
| 20260901091554 | 71 | 172 | 0.0 | 0.0 | 0.00 | 0.16 | 0.00 | 92 | 1010.5 |
| 20260901090050 | 71 | 172 | 0.0 | 0.0 | 0.00 | 0.16 | 0.00 | 92 | 1010.3 |
| 20260901084541 | 71 | 172 | 0.0 | 0.0 | 0.00 | 0.19 | 0.00 | 92 | 1010.1 |
| 20260901083039 | 71 | 172 | 0.0 | 0.0 | 0.00 | 0.19 | 0.00 | 92 | 1010.2 |
| 20260901081538 | 71 | 172 | 0.0 | 0.0 | 0.00 | 0.19 | 0.00 | 92 | 1010.2 |
| 20260901080037 | 71 | 172 | 0.0 | 0.0 | 0.00 | 0.19 | 0.00 | 92 | 1010.1 |
| 20260901074536 | 71 | 172 | 0.0 | 0.0 | 0.00 | 0.19 | 0.00 | 91 | 1010.1 |
| 20260901073037 | 71 | 171 | 0.0 | 0.0 | 0.00 | 0.19 | 0.00 | 91 | 1010.1 |
| 20260901071536 | 71 | 172 | 0.0 | 0.0 | 0.00 | 0.19 | 0.00 | 91 | 1010.1 |
| 20260901070035 | 71 | 171 | 0.0 | 0.0 | 0.00 | 0.19 | 0.00 | 91 | 1010.1 |
| 20260901064525 | 71 | 171 | 0.0 | 0.0 | 0.00 | 0.19 | 0.00 | 91 | 1010.1 |
| 20260901063016 | 71 | 169 | 0.0 | 0.0 | 0.00 | 0.19 | 0.00 | 91 | 1010.2 |
| 20260901061503 | 71 | 170 | 0.0 | 0.0 | 0.00 | 0.19 | 0.00 | 91 | 1010.4 |
| 20260901060002 | 71 | 171 | 0.0 | 0.0 | 0.00 | 0.19 | 0.00 | 91 | 1010.5 |
| 20260901054505 | 71 | 168 | 0.0 | 0.0 | 0.00 | 0.19 | 0.00 | 90 | 1010.7 |
| 20260901053124 | 71 | 166 | 0.0 | 0.0 | 0.00 | 0.19 | 0.00 | 90 | 1010.7 |
| 20260901051610 | 71 | 167 | 0.0 | 0.0 | 0.00 | 0.19 | 0.00 | 90 | 1010.8 |